Voltar ao catálogo

STARLINK-35854

AtivoComunicaçõesSSO
NORAD 68214·PAYLOAD·🇺🇸 United States

Lançado Mar 17, 2026 de Vandenberg Space Force Base

Loading…

Próximas Passagens (próximas 24 horas)

TLE

AtualizadoSource: CelesTrak SupGP

Época: Sep 14, 2026, 21:21 UTC

1 68214C 26053H   26257.89006944  .00002538  00000+0  78821-4 0  2573
2 68214  97.2849 131.7673 0001861  94.2161 335.0322 15.33425402    17

Acompanhe STARLINK-35854 em tempo real com AllMySat

Download on the App Store